Погода в Тульском

Россия / Липецкая область     52°12′59″N   38°21′12″E
темп.,
°C
ветер,
м/с
пор.,
м/с
влажн.,
%
обл.,
%
осадки,
мм/ч
давл.,
гПа
погр.,
м
17 мая, пн
пн1700:00+16св4117739 0.1 1011209
03:00+15в489468 0.1 1010139
06:00+16в410835 0.0 1010188
09:00+22юв6136045 0.0 1009470
12:00+25вюв7124588 0.0 10091279
15:00+25вюв81449100 0.0 10081436
18:00+24вюв714571 0.0 1007668
21:00+19вюв615703 0.0 1007302
18 мая, вт
вт1800:00+17вюв4127581 0.0 1008253
03:00+15вюв487688 0.0 1007139
06:00+14вюв37789 0.0 1007144
09:00+20юв712608 0.0 1007481
12:00+22юв5954100 0.0 1006859
15:00+24юв694783 0.0 10051541
18:00+21ю697099 0.3 1006576
21:00+16ю41187100 1.5 1006476
19 мая, ср
ср1900:00+15вюв489259 0.1 1008280
03:00+15юв4895100 0.5 1007273
06:00+15юв4109287 1.1 1007390
09:00+18ююв457693 1.1 1007747
12:00+21ююв565941 0.1 10071683
15:00+22ююв575266 0.1 10061921
18:00+20ю4672100 0.3 1006454
21:00+15ююз4991100 0.6 1007274
20 мая, чт
чт2000:00+13ююв2394100 0.0 100774
03:00+13ю369645 1.2 1006313
06:00+12ююв3695100 0.0 1007262
09:00+15ююв4483100 0.1 1006585
12:00+16ю237212 0.9 1007546
15:00+18ю676896 3.9 10061118
18:00+16ююз698147 2.7 1007872
21:00+12юз411911 3.0 1008400
21 мая, пт
пт2100:00+10ююз499410 0.0 1010213
03:00+12ю41193100 0.1 1009467
06:00+12ююз61192100 0.1 1009709
09:00+11юз4108960 1.8 1011499
12:00+16юз8117287 0.0 10111275
15:00+17зюз7117192 0.3 10121493
18:00+15з7117146 0.1 10141225
21:00+10з31083100 0.1 1017392